Flag for Canada Weather past 2 weeks in Mount Pearl, Newfoundland and Labrador, Canada

Now
34 °F

Light rain. Fog.


Feels Like: 25 °F
Forecast: 34 / 44 °F
Wind: 12 mph from Northeast

Location: St. John's

Current Time: Apr 26, 2015 at 4:14:56 AM

Latest Report: Apr 26, 2015 at 3:30 AM


Visibility: 0 mi

Pressure: 29.62 "Hg

Humidity: 100%

Dew point: 34 °F

Location of Mount PearlLocation

Historic Weather in Mount Pearl — Graph

°F

Mount Pearl temperature yesterday

Maximum temperature yesterday: 41 °F (at 12:30 PM)
Minimum temperature yesterday: 30 °F (at 12:30 AM)
Average temperature yesterday: 36 °F

Past Weeks' High & Low Weather Summary

 TemperatureHumidityPressure
High52 °F (Apr 14, 12:30 PM)100% (Apr 11, 7:30 AM)30.34 "Hg (Apr 11, 7:30 AM)
Low19 °F (Apr 16, 7:30 PM)41% (Apr 13, 1:30 PM)29.33 "Hg (Apr 11, 5:30 PM)
Average32 °F83%29.91 "Hg
* Reported Apr 11 2:30 AM — Apr 26 2:30 AM, Mount Pearl, Weather by CustomWeather, © 2015

Note: Actual official high and low records may vary slightly from our data, if they occured in-between our weather recording intervals... More about our weather records

Advertising

Mount Pearl weather history for previous 24 hours

 ConditionsComfort  
Time TempWeatherWind HumidityBarometerVisibility
2:30 AM
Sun, Apr 26
32 °FLight rain. Fog.13 mph100%29.64 "Hg1 mi
1:30 AM32 °FLight freezing rain. Ice fog.15 mph100%29.70 "Hg1 mi
12:30 AM32 °FLight rain. Fog.9 mph100%29.70 "Hg1 mi
11:30 PM
Sat, Apr 25
36 °FMostly cloudy.8 mph93%29.72 "Hg15 mi
10:30 PM36 °FPassing clouds.5 mph100%29.72 "Hg15 mi
9:30 PM36 °FPassing clouds.5 mph100%29.74 "Hg15 mi
8:30 PM37 °FPartly sunny.9 mph93%29.73 "Hg15 mi
7:30 PM37 °FPartly sunny.9 mph93%29.70 "Hg15 mi
6:30 PM37 °FBroken clouds.15 mph100%29.68 "Hg15 mi
5:30 PM37 °FLow clouds.17 mph93%29.67 "Hg15 mi
4:30 PM39 °FBroken clouds.25 mph93%29.60 "Hg15 mi
3:30 PM39 °FChilly.18 mph100%29.58 "Hg0 mi
2:30 PM37 °FFog.26 mph100%29.57 "Hg0 mi
1:30 PM39 °FDrizzle. Fog.23 mph100%29.55 "Hg0 mi
12:30 PM41 °FDrizzle. Fog.28 mph100%29.52 "Hg0 mi
11:30 AM37 °FDrizzle. Fog.18 mph100%29.58 "Hg0 mi
10:30 AM37 °FDrizzle. Fog.15 mph100%29.61 "Hg0 mi
9:30 AM37 °FLight rain. Fog.18 mph100%29.64 "Hg0 mi
8:30 AM37 °FLight rain. Fog.15 mph100%29.67 "Hg0 mi
7:30 AM36 °FLight rain. Fog.6 mph100%29.69 "Hg0 mi
6:30 AM32 °FLight rain. Fog.12 mph100%29.70 "Hg0 mi
5:30 AM32 °FLight freezing rain. Ice fog.14 mph100%29.72 "Hg0 mi
4:30 AM32 °FLight freezing rain. Ice fog.13 mph100%29.73 "Hg0 mi
Weather by CustomWeather, © 2015

See weather overviewHow to use our weather pages